Jersey, United Kingdom

4:03 AM BST on July 29, 2016 (GMT +0100)
Jersey

Weather History for EGJJ - November, 2013

Change the Weather History Date:

Wednesday, November 13, 2013

  Actual Average Record
Temperature  
Mean Temperature 49 °F -  
Max Temperature 54 °F 49 °F 60 °F (2011)
Min Temperature 44 °F 43 °F 41 °F (2000)
Degree Days  
Heating Degree Days 16    
Moisture  
Dew Point 41 °F    
Average Humidity 73    
Maximum Humidity 87    
Minimum Humidity 56    
Precipitation  
Precipitation 0.00 in - - ()
Sea Level Pressure  
Sea Level Pressure 30.51 in    
Wind  
Wind Speed 6 mph ()    
Max Wind Speed 14 mph    
Max Gust Speed -    
Visibility 6.2 miles    
Events      
Averages and records for this station are not official NWS values.
T = Trace of Precipitation, MM = Missing Value Source: Averaged Metar Reports

Daily Weather History Graph

Daily Weather History Graph

Search for Another Location

Airport or City:

Trip Planner

Search our weather history database for the weather conditions in past years. The results will help you decide how hot, cold, wet, or windy it might be!

Date:

Astronomy

Nov. 13, 2013 Rise Set
Actual Time 7:15 AM GMT 4:29 PM GMT
Civil Twilight 6:41 AM GMT 5:04 PM GMT
Nautical Twilight 6:02 AM GMT 5:42 PM GMT
Astronomical Twilight 5:25 AM GMT 6:20 PM GMT
Moon 2:28 PM GMT (11/13) 2:32 AM GMT (11/13)
Length of Visible Light 10h 23m
Length of Day
9h 13m
Waxing Gibbous, 83% of the Moon is Illuminated
Nov 13
Waxing Gibbous
Nov 17
Full
Nov 25
Last Quarter
Dec 3
New
Dec 9
First Quarter

Hourly Weather History & Observations

Time (GMT) Temp. Windchill Dew Point Humidity Pressure Visibility Wind Dir Wind Speed Gust Speed Precip Events Conditions
12:00 AM 50 °F - 42 °F 65% 30.53 in 28 mi NNE 12.7 mph - -   Scattered Clouds
3:00 AM 48 °F - 39 °F 63% 30.54 in 28 mi NE 8.1 mph - -   Scattered Clouds
3:50 AM 46.4 °F 42.9 °F 39.2 °F 76% 30.51 in 6.2 mi ENE 6.9 mph - N/A   Partly Cloudy
4:20 AM 46.4 °F 43.5 °F 39.2 °F 76% 30.54 in 6.2 mi ENE 5.8 mph - N/A   Partly Cloudy
4:50 AM 46.4 °F 42.4 °F 39.2 °F 76% 30.54 in 6.2 mi NE 8.1 mph - N/A   Partly Cloudy
5:20 AM 46.4 °F 42.9 °F 41.0 °F 81% 30.54 in 6.2 mi ENE 6.9 mph - N/A   Partly Cloudy
5:50 AM 46.4 °F 42.4 °F 41.0 °F 81% 30.54 in 6.2 mi ENE 8.1 mph - N/A   Partly Cloudy
6:00 AM 46 °F - 41 °F 75% 30.55 in 25 mi ENE 8.1 mph - -   Scattered Clouds
6:20 AM 46.4 °F 42.4 °F 39.2 °F 76% 30.54 in 6.2 mi ENE 8.1 mph - N/A   Partly Cloudy
6:50 AM 44.6 °F 40.2 °F 39.2 °F 81% 30.54 in 6.2 mi ENE 8.1 mph - N/A   Partly Cloudy
7:20 AM 44.6 °F 40.2 °F 39.2 °F 81% 30.54 in 6.2 mi ENE 8.1 mph - N/A   Partly Cloudy
7:50 AM 46.4 °F 42.9 °F 39.2 °F 76% 30.57 in 6.2 mi ENE 6.9 mph - N/A   Partly Cloudy
8:20 AM 48.2 °F - 41.0 °F 76% 30.57 in 6.2 mi ENE 4.6 mph - N/A   Partly Cloudy
8:50 AM 50.0 °F - 41.0 °F 71% 30.57 in 6.2 mi ENE 2.3 mph - N/A   Partly Cloudy
9:00 AM 50 °F - 42 °F 65% 30.58 in 25 mi NE 3.5 mph - -   Scattered Clouds
9:20 AM 51.8 °F - 42.8 °F 71% 30.57 in 6.2 mi ENE 4.6 mph - N/A   Partly Cloudy
9:50 AM 51.8 °F - 42.8 °F 71% 30.57 in 6.2 mi East 5.8 mph - N/A   Partly Cloudy
10:20 AM 51.8 °F - 42.8 °F 71% 30.57 in 6.2 mi East 5.8 mph - N/A   Partly Cloudy
10:50 AM 51.8 °F - 41.0 °F 67% 30.57 in 6.2 mi ENE 5.8 mph - N/A   Partly Cloudy
11:20 AM 51.8 °F - 42.8 °F 71% 30.57 in 6.2 mi East 4.6 mph - N/A   Partly Cloudy
11:50 AM 53.6 °F - 41.0 °F 62% 30.54 in 6.2 mi ESE 5.8 mph - N/A   Partly Cloudy
12:00 PM 53 °F - 42 °F 56% 30.55 in 28 mi SE 2.3 mph - -   Scattered Clouds
12:20 PM 53.6 °F - 41.0 °F 62% 30.54 in 6.2 mi Variable 3.5 mph - N/A   Partly Cloudy
12:50 PM 53.6 °F - 41.0 °F 62% 30.54 in 6.2 mi Variable 1.2 mph - N/A   Partly Cloudy
1:20 PM 51.8 °F - 42.8 °F 71% 30.51 in 6.2 mi WNW 6.9 mph - N/A   Partly Cloudy
1:50 PM 51.8 °F - 42.8 °F 71% 30.51 in 6.2 mi West 5.8 mph - N/A   Partly Cloudy
2:20 PM 51.8 °F - 42.8 °F 71% 30.48 in 6.2 mi NW 4.6 mph - N/A   Partly Cloudy
2:50 PM 51.8 °F - 42.8 °F 71% 30.48 in 6.2 mi WNW 4.6 mph - N/A   Partly Cloudy
3:00 PM 51 °F - 42 °F 63% 30.50 in 25 mi WNW 4.6 mph - -   Scattered Clouds
3:20 PM 50.0 °F - 42.8 °F 76% 30.48 in 6.2 mi West 4.6 mph - N/A   Partly Cloudy
3:50 PM 50.0 °F - 42.8 °F 76% 30.48 in 6.2 mi NW 2.3 mph - N/A   Partly Cloudy
4:20 PM 48.2 °F - 42.8 °F 82% 30.48 in 6.2 mi NNW 1.2 mph - N/A   Partly Cloudy
4:50 PM 48.2 °F - 41.0 °F 76% 30.45 in 6.2 mi WNW 6.9 mph - N/A   Partly Cloudy
5:20 PM 46.4 °F 44.3 °F 41.0 °F 81% 30.45 in 6.2 mi West 4.6 mph - N/A   Partly Cloudy
5:50 PM 46.4 °F 44.3 °F 39.2 °F 76% 30.45 in 6.2 mi West 4.6 mph - N/A   Partly Cloudy
6:00 PM 46 °F - 39 °F 69% 30.47 in 22 mi West 4.6 mph - -   Scattered Clouds
6:20 PM 46.4 °F 43.5 °F 41.0 °F 81% 30.45 in 6.2 mi West 5.8 mph - N/A   Partly Cloudy
6:50 PM 46.4 °F 44.3 °F 41.0 °F 81% 30.45 in 6.2 mi West 4.6 mph - N/A   Partly Cloudy
7:20 PM 46.4 °F 42.4 °F 39.2 °F 76% 30.45 in 6.2 mi WSW 8.1 mph - N/A   Partly Cloudy
7:50 PM 44.6 °F 39.2 °F 41.0 °F 87% 30.42 in 6.2 mi WSW 10.4 mph - N/A   Partly Cloudy
8:20 PM 48.2 °F - 41.0 °F 76% 30.42 in 6.2 mi WNW 10.4 mph - N/A   Partly Cloudy
8:50 PM 50.0 °F - 42.8 °F 76% 30.42 in 6.2 mi West 13.8 mph - N/A   Scattered Clouds
9:00 PM 50 °F - 42 °F 66% 30.43 in 28 mi West 11.5 mph - -   Mostly Cloudy